QPF
0.00 0.00 0.00 0.00 0.00 0.00 0.00 0.00 0.00 0.00 0.00 0.00 0.00 0.00 0.00 0.00 0.00 0.00 0.00 0.00 0.00 0.00 0.00 0.00 0.00 0.00 0.00 0.00 0.00 0.00 0.00 0.00 0.00 0.00 0.00 0.00 0.00 0.00 0.00 0.00 0.00 0.00 0.00
0.00 0.00 0.00 0.00 0.00 0.00 0.00 0.00 0.00 0.00 0.00 0.00 0.00 0.00 0.00 0.00 0.00 0.00 0.00 0.00 0.00 0.00 0.00 0.00 0.00 0.00 0.00 0.00 0.00 0.00 0.00 0.00 0.00 0.00 0.00 0.00 0.00 0.00 0.00 0.00 0.00 0.00 0.00
0.00 0.00 0.00 0.00 0.00 0.00 0.00 0.00 0.00 0.00 0.00 0.00 0.00 0.00 0.00 0.00 0.00 0.00 0.00 0.00 0.00 0.00 0.00 0.00 0.00 0.00 0.00 0.00 0.00 0.00 0.00 0.00 0.00 0.00 0.00 0.00 0.00 0.00 0.00 0.00 0.00 0.00 0.01
0.00 0.00 0.00 0.00 0.00 0.00 0.00 0.00 0.00 0.00 0.00 0.00 0.00 0.00 0.00 0.00 0.00 0.00 0.00 0.00 0.00 0.00 0.00 0.00 0.00 0.00 0.00 0.00 0.00 0.00 0.00 0.00 0.00 0.00 0.00 0.00 0.00 0.00 0.00 0.00 0.00 0.00 0.00
0.00 0.00 0.00 0.01 0.01 0.00 0.00 0.00 0.00 0.00 0.00 0.00 0.00 0.00 0.00 0.00 0.00 0.00 0.00 0.00 0.00 0.00 0.00 0.00 0.00 0.00 0.00 0.00 0.00 0.00 0.00 0.00 0.00 0.00 0.00 0.00 0.00 0.00 0.00 0.00 0.00 0.00 0.00
0.00 0.01 0.01 0.01 0.01 0.00 0.00 0.00 0.00 0.00 0.00 0.00 0.00 0.00 0.00 0.00 0.00 0.00 0.00 0.00 0.00 0.00 0.00 0.00 0.00 0.00 0.00 0.00 0.00 0.00 0.00 0.00 0.00 0.00 0.00 0.00 0.00 0.00 0.00 0.00 0.00 0.00 0.00
0.01 0.02 0.02 0.02 0.01 0.00 0.00 0.00 0.00 0.00 0.00 0.00 0.00 0.00 0.00 0.00 0.00 0.00 0.00 0.00 0.00 0.00 0.00 0.00 0.00 0.00 0.00 0.00 0.00 0.00 0.00 0.00 0.00 0.00 0.00 0.00 0.00 0.00 0.00 0.00 0.00 0.00 0.00
0.01 0.01 0.01 0.01 0.00 0.00 0.00 0.00 0.00 0.00 0.00 0.00 0.00 0.00 0.00 0.00 0.00 0.00 0.00 0.00 0.00 0.00 0.00 0.00 0.00 0.00 0.00 0.00 0.00 0.00 0.00 0.00 0.00 0.00 0.00 0.00 0.00 0.00 0.00 0.00 0.00 0.00 0.00
0.00 0.00 0.00 0.00 0.00 0.00 0.00 0.00 0.00 0.00 0.00 0.00 0.00 0.01 0.01 0.01 0.01 0.01 0.01 0.00 0.00 0.00 0.00 0.00 0.00 0.00 0.00 0.00 0.00 0.00 0.00 0.00 0.00 0.00 0.00 0.00 0.00 0.00 0.00 0.00 0.00 0.00 0.00
0.00 0.00 0.00 0.00 0.00 0.00 0.00 0.01 0.01 0.01 0.01 0.01 0.01 0.01 0.01 0.00 0.00 0.00 0.00 0.00 0.00 0.00 0.00 0.00 0.00 0.00 0.00 0.00 0.00 0.00 0.00 0.00 0.00 0.00 0.00 0.00 0.00 0.00 0.00 0.00 0.00 0.00 0.00
0.01 0.01 0.01 0.01 0.02 0.02 0.02 0.02 0.02 0.02 0.01 0.01 0.00 0.00 0.00 0.00 0.00 0.00 0.00 0.00 0.00 0.00 0.00 0.00 0.00 0.00 0.00 0.00 0.00 0.00 0.00 0.00 0.00 0.00 0.00 0.00 0.00 0.00 0.00 0.00 0.00 0.00 0.00
0.02 0.02 0.02 0.02 0.03 0.03 0.02 0.02 0.01 0.00 0.00 0.00 0.00 0.00 0.00 0.00 0.00 0.00 0.00 0.00 0.00 0.00 0.00 0.00 0.00 0.00 0.00 0.00 0.00 0.00 0.00 0.00 0.00 0.00 0.00 0.00 0.00 0.00 0.00 0.00 0.00 0.00 0.00
0.03 0.03 0.02 0.02 0.02 0.02 0.02 0.01 0.01 0.01 0.01 0.00 0.00 0.00 0.00 0.00 0.00 0.00 0.00 0.00 0.00 0.00 0.00 0.00 0.00 0.00 0.00 0.00 0.00 0.00 0.00 0.00 0.00 0.00 0.00 0.00 0.00 0.00 0.00 0.00 0.00 0.01 0.01
0.03 0.03 0.02 0.02 0.03 0.04 0.03 0.03 0.02 0.02 0.02 0.01 0.01 0.01 0.00 0.00 0.00 0.00 0.00 0.00 0.00 0.00 0.00 0.00 0.00 0.00 0.00 0.00 0.00 0.00 0.00 0.00 0.00 0.00 0.00 0.00 0.00 0.00 0.00 0.00 0.01 0.01 0.01
0.03 0.03 0.04 0.05 0.06 0.06 0.06 0.05 0.05 0.04 0.04 0.03 0.02 0.01 0.00 0.00 0.00 0.00 0.00 0.00 0.00 0.00 0.00 0.00 0.00 0.00 0.00 0.00 0.00 0.00 0.00 0.00 0.00 0.00 0.00 0.00 0.00 0.00 0.00 0.01 0.01 0.01 0.01
0.06 0.06 0.08 0.09 0.09 0.08 0.07 0.05 0.04 0.03 0.02 0.01 0.01 0.00 0.00 0.00 0.00 0.00 0.00 0.00 0.00 0.00 0.00 0.00 0.00 0.00 0.00 0.00 0.00 0.00 0.00 0.00 0.00 0.00 0.01 0.01 0.01 0.00 0.01 0.01 0.01 0.01 0.02
0.05 0.06 0.06 0.05 0.05 0.04 0.03 0.02 0.01 0.01 0.01 0.01 0.00 0.00 0.00 0.00 0.00 0.00 0.00 0.00 0.00 0.00 0.00 0.00 0.00 0.00 0.00 0.00 0.00 0.00 0.00 0.00 0.00 0.00 0.00 0.01 0.01 0.01 0.01 0.01 0.01 0.02 0.02
0.02 0.02 0.02 0.02 0.02 0.02 0.01 0.01 0.01 0.00 0.00 0.00 0.00 0.00 0.00 0.00 0.00 0.00 0.00 0.00 0.00 0.00 0.00 0.00 0.00 0.00 0.00 0.00 0.00 0.00 0.00 0.00 0.00 0.00 0.00 0.00 0.01 0.01 0.01 0.02 0.02 0.02 0.03
0.03 0.03 0.02 0.02 0.02 0.01 0.01 0.01 0.01 0.01 0.01 0.00 0.00 0.00 0.00 0.00 0.00 0.00 0.00 0.00 0.00 0.01 0.00 0.00 0.00 0.00 0.00 0.00 0.00 0.00 0.00 0.01 0.01 0.00 0.00 0.01 0.01 0.01 0.01 0.01 0.01 0.02 0.03
0.03 0.02 0.02 0.02 0.01 0.01 0.01 0.01 0.01 0.00 0.00 0.00 0.00 0.00 0.01 0.01 0.01 0.01 0.01 0.01 0.01 0.01 0.01 0.01 0.01 0.01 0.00 0.00 0.00 0.00 0.00 0.01 0.01 0.01 0.01 0.01 0.01 0.01 0.01 0.01 0.01 0.01 0.02
0.01 0.01 0.00 0.00 0.00 0.00 0.00 0.01 0.01 0.01 0.01 0.01 0.01 0.01 0.01 0.01 0.01 0.01 0.02 0.02 0.02 0.02 0.02 0.01 0.01 0.00 0.00 0.00 0.00 0.00 0.01 0.01 0.01 0.01 0.01 0.01 0.01 0.01 0.01 0.01 0.01 0.01 0.02
0.00 0.00 0.00 0.00 0.00 0.00 0.00 0.00 0.00 0.01 0.01 0.01 0.01 0.01 0.01 0.01 0.02 0.02 0.03 0.03 0.03 0.03 0.02 0.01 0.01 0.01 0.01 0.01 0.01 0.01 0.01 0.01 0.01 0.02 0.02 0.02 0.02 0.02 0.02 0.01 0.01 0.01 0.02
0.00 0.00 0.00 0.00 0.00 0.00 0.00 0.00 0.00 0.00 0.00 0.01 0.01 0.01 0.01 0.02 0.03 0.04 0.04 0.03 0.03 0.03 0.02 0.01 0.01 0.01 0.01 0.01 0.01 0.01 0.01 0.01 0.02 0.02 0.02 0.02 0.02 0.02 0.03 0.03 0.02 0.02 0.03
0.00 0.00 0.00 0.00 0.00 0.00 0.00 0.00 0.00 0.01 0.01 0.01 0.02 0.02 0.03 0.04 0.04 0.04 0.04 0.03 0.03 0.03 0.02 0.02 0.02 0.01 0.01 0.01 0.01 0.01 0.01 0.02 0.02 0.02 0.02 0.02 0.02 0.03 0.03 0.03 0.03 0.03 0.05
0.00 0.00 0.00 0.00 0.00 0.00 0.00 0.01 0.01 0.01 0.01 0.02 0.02 0.03 0.03 0.04 0.05 0.04 0.04 0.04 0.04 0.04 0.03 0.03 0.02 0.01 0.01 0.01 0.01 0.01 0.02 0.02 0.02 0.02 0.02 0.02 0.02 0.03 0.05 0.05 0.05 0.06 0.07
0.00 0.00 0.00 0.00 0.00 0.00 0.00 0.01 0.01 0.01 0.01 0.02 0.03 0.03 0.04 0.04 0.04 0.05 0.05 0.04 0.04 0.04 0.04 0.03 0.02 0.01 0.01 0.01 0.01 0.01 0.01 0.01 0.01 0.01 0.02 0.02 0.03 0.03 0.04 0.06 0.06 0.06 0.07
MSLP
1016.05 1016.53 1017.01 1017.42 1017.76 1018.00 1018.17 1018.28 1018.36 1018.44 1018.54 1018.66 1018.80 1018.94 1019.06 1019.14 1019.18 1019.16 1019.11 1019.03 1018.95 1018.88 1018.83 1018.81 1018.80 1018.79 1018.77 1018.73 1018.66 1018.56 1018.42 1018.27 1018.09 1017.91 1017.71 1017.52 1017.31 1017.11 1016.91 1016.72 1016.55 1016.41 1016.30
1015.79 1016.26 1016.70 1017.08 1017.40 1017.64 1017.81 1017.94 1018.06 1018.17 1018.30 1018.44 1018.60 1018.74 1018.85 1018.92 1018.94 1018.91 1018.84 1018.74 1018.64 1018.54 1018.45 1018.39 1018.34 1018.30 1018.26 1018.21 1018.14 1018.07 1017.98 1017.88 1017.77 1017.65 1017.52 1017.37 1017.21 1017.03 1016.83 1016.62 1016.42 1016.23 1016.08
1015.50 1015.96 1016.38 1016.75 1017.05 1017.28 1017.46 1017.61 1017.75 1017.89 1018.05 1018.21 1018.37 1018.51 1018.62 1018.67 1018.67 1018.63 1018.54 1018.42 1018.30 1018.18 1018.07 1017.98 1017.91 1017.84 1017.78 1017.72 1017.66 1017.60 1017.53 1017.47 1017.40 1017.33 1017.25 1017.14 1017.01 1016.84 1016.65 1016.43 1016.21 1015.98 1015.78
1015.15 1015.62 1016.05 1016.41 1016.70 1016.93 1017.12 1017.29 1017.45 1017.62 1017.79 1017.96 1018.13 1018.26 1018.35 1018.39 1018.37 1018.31 1018.20 1018.08 1017.94 1017.81 1017.70 1017.59 1017.51 1017.43 1017.36 1017.28 1017.22 1017.15 1017.10 1017.05 1017.00 1016.96 1016.90 1016.83 1016.72 1016.57 1016.38 1016.16 1015.92 1015.67 1015.43
1014.73 1015.23 1015.67 1016.03 1016.33 1016.57 1016.77 1016.96 1017.14 1017.33 1017.51 1017.70 1017.86 1017.98 1018.05 1018.07 1018.03 1017.95 1017.83 1017.69 1017.55 1017.42 1017.30 1017.20 1017.11 1017.02 1016.94 1016.86 1016.78 1016.71 1016.65 1016.60 1016.56 1016.53 1016.49 1016.43 1016.34 1016.21 1016.04 1015.83 1015.59 1015.33 1015.07
1014.24 1014.77 1015.23 1015.61 1015.92 1016.17 1016.39 1016.60 1016.81 1017.01 1017.21 1017.39 1017.55 1017.66 1017.71 1017.70 1017.64 1017.53 1017.39 1017.24 1017.10 1016.97 1016.85 1016.75 1016.66 1016.58 1016.49 1016.40 1016.32 1016.23 1016.16 1016.10 1016.06 1016.02 1015.99 1015.95 1015.88 1015.78 1015.63 1015.44 1015.22 1014.97 1014.70
1013.68 1014.25 1014.73 1015.13 1015.45 1015.73 1015.97 1016.20 1016.43 1016.65 1016.86 1017.04 1017.19 1017.27 1017.30 1017.26 1017.17 1017.03 1016.87 1016.71 1016.56 1016.43 1016.31 1016.22 1016.14 1016.06 1015.97 1015.88 1015.78 1015.69 1015.60 1015.53 1015.48 1015.45 1015.42 1015.40 1015.35 1015.28 1015.17 1015.02 1014.83 1014.60 1014.36
1013.10 1013.68 1014.18 1014.60 1014.94 1015.24 1015.51 1015.76 1016.00 1016.24 1016.45 1016.63 1016.76 1016.82 1016.81 1016.73 1016.60 1016.44 1016.25 1016.07 1015.91 1015.78 1015.67 1015.58 1015.51 1015.43 1015.35 1015.26 1015.16 1015.06 1014.97 1014.89 1014.84 1014.80 1014.79 1014.78 1014.77 1014.73 1014.67 1014.57 1014.42 1014.24 1014.03
1012.55 1013.13 1013.63 1014.06 1014.42 1014.74 1015.03 1015.30 1015.55 1015.79 1016.00 1016.16 1016.26 1016.28 1016.23 1016.12 1015.95 1015.75 1015.54 1015.35 1015.18 1015.04 1014.94 1014.86 1014.79 1014.73 1014.66 1014.57 1014.48 1014.38 1014.28 1014.20 1014.15 1014.12 1014.12 1014.13 1014.15 1014.15 1014.14 1014.08 1013.99 1013.86 1013.69
1012.09 1012.65 1013.14 1013.56 1013.93 1014.26 1014.55 1014.83 1015.09 1015.31 1015.50 1015.63 1015.69 1015.68 1015.58 1015.43 1015.22 1014.99 1014.76 1014.56 1014.38 1014.25 1014.16 1014.10 1014.05 1014.00 1013.94 1013.87 1013.78 1013.68 1013.59 1013.52 1013.46 1013.44 1013.45 1013.48 1013.52 1013.56 1013.58 1013.57 1013.53 1013.45 1013.33
1011.76 1012.28 1012.74 1013.15 1013.51 1013.83 1014.12 1014.39 1014.63 1014.83 1014.98 1015.07 1015.08 1015.01 1014.87 1014.68 1014.44 1014.19 1013.95 1013.74 1013.58 1013.47 1013.39 1013.35 1013.32 1013.30 1013.26 1013.20 1013.12 1013.04 1012.95 1012.87 1012.82 1012.80 1012.81 1012.85 1012.90 1012.96 1013.00 1013.03 1013.02 1012.98 1012.90
1011.59 1012.06 1012.48 1012.86 1013.19 1013.49 1013.76 1014.00 1014.20 1014.35 1014.45 1014.48 1014.43 1014.31 1014.12 1013.89 1013.63 1013.38 1013.14 1012.95 1012.82 1012.73 1012.69 1012.68 1012.68 1012.68 1012.66 1012.62 1012.55 1012.47 1012.38 1012.30 1012.24 1012.21 1012.21 1012.24 1012.29 1012.35 1012.40 1012.44 1012.45 1012.43 1012.37
1011.60 1011.99 1012.36 1012.69 1012.99 1013.25 1013.48 1013.67 1013.80 1013.89 1013.91 1013.86 1013.75 1013.56 1013.33 1013.08 1012.81 1012.57 1012.36 1012.21 1012.11 1012.08 1012.08 1012.11 1012.14 1012.17 1012.17 1012.14 1012.07 1011.99 1011.89 1011.80 1011.72 1011.67 1011.64 1011.65 1011.67 1011.71 1011.75 1011.78 1011.79 1011.78 1011.73
1011.76 1012.08 1012.38 1012.66 1012.90 1013.10 1013.27 1013.38 1013.44 1013.44 1013.37 1013.24 1013.04 1012.80 1012.53 1012.25 1011.99 1011.77 1011.61 1011.51 1011.47 1011.49 1011.54 1011.62 1011.69 1011.74 1011.76 1011.73 1011.66 1011.56 1011.44 1011.33 1011.22 1011.13 1011.07 1011.04 1011.03 1011.04 1011.05 1011.05 1011.05 1011.02 1010.98
1012.04 1012.28 1012.51 1012.72 1012.89 1013.03 1013.12 1013.15 1013.11 1013.01 1012.84 1012.61 1012.34 1012.03 1011.72 1011.43 1011.18 1010.99 1010.87 1010.83 1010.86 1010.94 1011.05 1011.17 1011.27 1011.34 1011.36 1011.32 1011.24 1011.12 1010.98 1010.82 1010.68 1010.55 1010.45 1010.37 1010.32 1010.29 1010.27 1010.24 1010.22 1010.18 1010.13
1012.38 1012.55 1012.71 1012.85 1012.95 1013.01 1013.02 1012.95 1012.82 1012.61 1012.33 1012.01 1011.65 1011.28 1010.92 1010.62 1010.37 1010.21 1010.14 1010.15 1010.23 1010.37 1010.52 1010.68 1010.80 1010.88 1010.89 1010.85 1010.74 1010.59 1010.41 1010.23 1010.04 1009.87 1009.73 1009.62 1009.53 1009.46 1009.41 1009.36 1009.31 1009.25 1009.20
1012.73 1012.83 1012.93 1013.00 1013.04 1013.03 1012.95 1012.80 1012.56 1012.25 1011.87 1011.45 1011.00 1010.57 1010.17 1009.83 1009.59 1009.44 1009.40 1009.45 1009.57 1009.74 1009.92 1010.09 1010.22 1010.29 1010.30 1010.23 1010.10 1009.92 1009.71 1009.49 1009.27 1009.08 1008.90 1008.76 1008.65 1008.55 1008.48 1008.41 1008.35 1008.29 1008.24
1013.04 1013.08 1013.13 1013.15 1013.14 1013.06 1012.91 1012.68 1012.36 1011.95 1011.48 1010.97 1010.44 1009.93 1009.48 1009.11 1008.84 1008.69 1008.65 1008.70 1008.84 1009.01 1009.20 1009.37 1009.49 1009.55 1009.53 1009.44 1009.29 1009.08 1008.85 1008.61 1008.37 1008.16 1007.97 1007.82 1007.69 1007.59 1007.51 1007.44 1007.38 1007.32 1007.27
1013.25 1013.26 1013.27 1013.25 1013.20 1013.08 1012.88 1012.59 1012.20 1011.73 1011.18 1010.59 1009.99 1009.41 1008.90 1008.48 1008.17 1007.98 1007.91 1007.94 1008.05 1008.21 1008.37 1008.52 1008.62 1008.65 1008.62 1008.51 1008.33 1008.12 1007.87 1007.62 1007.38 1007.16 1006.97 1006.82 1006.70 1006.60 1006.52 1006.46 1006.41 1006.37 1006.34
1013.32 1013.31 1013.30 1013.28 1013.21 1013.07 1012.85 1012.53 1012.10 1011.58 1010.98 1010.32 1009.66 1009.02 1008.44 1007.95 1007.58 1007.33 1007.20 1007.18 1007.24 1007.35 1007.47 1007.58 1007.65 1007.66 1007.60 1007.48 1007.30 1007.08 1006.84 1006.60 1006.36 1006.15 1005.98 1005.83 1005.72 1005.63 1005.57 1005.52 1005.48 1005.46 1005.44
1013.22 1013.21 1013.20 1013.18 1013.12 1012.99 1012.77 1012.45 1012.02 1011.48 1010.85 1010.16 1009.44 1008.74 1008.10 1007.54 1007.09 1006.76 1006.55 1006.45 1006.44 1006.49 1006.56 1006.62 1006.65 1006.64 1006.58 1006.45 1006.28 1006.07 1005.85 1005.62 1005.40 1005.21 1005.04 1004.91 1004.81 1004.73 1004.67 1004.63 1004.61 1004.60 1004.60
1012.93 1012.92 1012.93 1012.94 1012.90 1012.81 1012.62 1012.32 1011.91 1011.38 1010.74 1010.04 1009.30 1008.55 1007.85 1007.22 1006.69 1006.27 1005.98 1005.79 1005.70 1005.67 1005.68 1005.70 1005.71 1005.68 1005.61 1005.50 1005.35 1005.16 1004.96 1004.76 1004.56 1004.38 1004.23 1004.10 1003.99 1003.91 1003.85 1003.81 1003.79 1003.78 1003.79
1012.44 1012.45 1012.49 1012.52 1012.53 1012.48 1012.34 1012.09 1011.72 1011.23 1010.62 1009.92 1009.17 1008.40 1007.65 1006.96 1006.36 1005.86 1005.48 1005.20 1005.03 1004.94 1004.90 1004.88 1004.87 1004.84 1004.78 1004.69 1004.57 1004.42 1004.25 1004.07 1003.88 1003.71 1003.55 1003.41 1003.30 1003.20 1003.12 1003.07 1003.03 1003.02 1003.03
1011.78 1011.81 1011.87 1011.95 1012.00 1012.01 1011.93 1011.73 1011.42 1010.98 1010.41 1009.74 1009.00 1008.22 1007.44 1006.71 1006.05 1005.49 1005.03 1004.69 1004.45 1004.30 1004.22 1004.18 1004.16 1004.14 1004.11 1004.05 1003.96 1003.85 1003.71 1003.55 1003.37 1003.20 1003.03 1002.86 1002.72 1002.59 1002.48 1002.39 1002.34 1002.31 1002.31
1011.01 1011.05 1011.14 1011.24 1011.34 1011.40 1011.37 1011.24 1010.99 1010.60 1010.09 1009.46 1008.74 1007.98 1007.20 1006.44 1005.75 1005.13 1004.63 1004.23 1003.95 1003.76 1003.65 1003.61 1003.59 1003.59 1003.59 1003.57 1003.52 1003.44 1003.32 1003.17 1003.00 1002.81 1002.61 1002.42 1002.23 1002.06 1001.91 1001.79 1001.70 1001.65 1001.65
1010.19 1010.24 1010.34 1010.47 1010.60 1010.69 1010.72 1010.64 1010.44 1010.11 1009.65 1009.07 1008.39 1007.65 1006.89 1006.13 1005.42 1004.79 1004.25 1003.83 1003.52 1003.31 1003.20 1003.15 1003.15 1003.17 1003.20 1003.21 1003.19 1003.14 1003.04 1002.89 1002.72 1002.51 1002.28 1002.04 1001.81 1001.59 1001.40 1001.25 1001.13 1001.06 1001.05
Thickness
5716 5714 5712 5710 5707 5705 5702 5700 5697 5694 5691 5688 5684 5680 5677 5673 5669 5665 5661 5658 5654 5650 5647 5643 5640 5637 5633 5631 5628 5626 5624 5622 5622 5625 5624 5626 5628 5631 5635 5638 5642 5646 5650
5718 5714 5711 5708 5705 5702 5700 5697 5694 5691 5688 5685 5681 5677 5673 5670 5666 5662 5658 5655 5650 5647 5643 5639 5635 5632 5629 5625 5622 5620 5618 5616 5615 5617 5617 5617 5619 5621 5624 5628 5632 5636 5640
5717 5713 5709 5705 5702 5699 5697 5694 5691 5687 5684 5681 5677 5673 5670 5666 5662 5659 5655 5651 5647 5643 5639 5635 5632 5627 5624 5620 5617 5614 5612 5611 5609 5608 5610 5610 5611 5612 5614 5618 5622 5626 5630
5715 5711 5707 5704 5701 5698 5695 5691 5687 5684 5681 5677 5674 5670 5667 5663 5659 5655 5651 5647 5643 5639 5636 5632 5628 5623 5620 5616 5613 5610 5607 5604 5602 5601 5602 5602 5602 5603 5604 5607 5612 5615 5620
5713 5709 5706 5703 5699 5695 5691 5688 5685 5681 5678 5674 5670 5666 5663 5659 5656 5652 5648 5644 5639 5635 5631 5627 5624 5620 5616 5612 5609 5606 5602 5599 5596 5595 5595 5595 5595 5595 5596 5599 5602 5605 5609
5711 5708 5704 5700 5695 5691 5687 5684 5681 5677 5674 5669 5666 5662 5659 5656 5654 5649 5645 5640 5635 5631 5627 5624 5619 5615 5613 5609 5606 5602 5598 5594 5592 5590 5589 5588 5589 5589 5589 5590 5592 5595 5599
5709 5705 5701 5696 5692 5688 5684 5680 5677 5673 5669 5665 5662 5658 5655 5653 5649 5645 5640 5636 5631 5627 5623 5619 5616 5613 5609 5605 5601 5598 5595 5591 5589 5586 5585 5585 5584 5583 5582 5583 5584 5586 5590
5706 5702 5698 5693 5689 5685 5680 5676 5673 5669 5665 5661 5658 5655 5652 5650 5646 5641 5637 5632 5628 5624 5620 5616 5611 5608 5604 5599 5596 5593 5590 5587 5585 5582 5581 5581 5579 5578 5576 5576 5577 5578 5581
5702 5698 5695 5690 5686 5681 5676 5673 5670 5665 5661 5658 5655 5651 5648 5646 5643 5638 5632 5627 5624 5621 5617 5612 5607 5603 5600 5595 5590 5587 5585 5583 5581 5578 5576 5575 5574 5572 5570 5568 5568 5569 5574
5699 5695 5691 5687 5682 5677 5673 5669 5665 5661 5658 5654 5651 5648 5645 5642 5640 5635 5629 5623 5619 5617 5613 5608 5603 5599 5596 5590 5585 5582 5580 5579 5576 5573 5571 5569 5568 5567 5565 5563 5564 5564 5567
5696 5691 5686 5681 5677 5672 5668 5664 5659 5655 5652 5649 5646 5644 5640 5638 5635 5631 5625 5618 5615 5612 5609 5605 5601 5596 5591 5586 5580 5577 5576 5573 5570 5566 5564 5563 5562 5561 5560 5559 5559 5559 5561
5686 5682 5678 5674 5670 5667 5661 5657 5653 5649 5645 5643 5639 5637 5636 5633 5630 5627 5622 5616 5611 5607 5605 5602 5598 5592 5586 5581 5577 5574 5570 5565 5562 5560 5558 5558 5558 5557 5557 5555 5554 5554 5556
5677 5672 5669 5666 5662 5658 5653 5649 5645 5641 5638 5636 5633 5631 5630 5629 5626 5622 5617 5613 5608 5602 5600 5597 5592 5586 5580 5576 5573 5569 5564 5561 5558 5555 5556 5556 5555 5553 5551 5549 5548 5548 5549
5667 5663 5659 5656 5653 5649 5645 5641 5637 5634 5630 5628 5625 5623 5623 5621 5619 5617 5613 5609 5603 5598 5594 5590 5584 5579 5574 5571 5568 5565 5561 5558 5555 5553 5553 5552 5549 5547 5545 5543 5543 5543 5544
5656 5652 5648 5645 5641 5638 5635 5632 5629 5627 5623 5620 5618 5616 5613 5613 5614 5610 5604 5601 5597 5592 5586 5581 5577 5573 5570 5567 5564 5561 5557 5553 5550 5549 5547 5545 5544 5542 5541 5539 5537 5537 5539
5644 5640 5636 5633 5629 5626 5624 5622 5621 5617 5615 5612 5608 5605 5605 5603 5602 5599 5595 5591 5587 5581 5575 5575 5572 5569 5566 5564 5561 5558 5554 5551 5549 5546 5543 5541 5540 5539 5537 5535 5533 5534 5535
5631 5628 5624 5621 5618 5615 5612 5609 5608 5609 5606 5604 5601 5597 5594 5593 5591 5589 5586 5582 5578 5572 5569 5569 5567 5564 5561 5558 5555 5553 5551 5549 5546 5543 5541 5539 5537 5536 5534 5533 5532 5531 5532
5619 5615 5612 5608 5605 5602 5599 5596 5594 5592 5592 5593 5592 5589 5586 5584 5582 5580 5576 5572 5570 5565 5564 5564 5562 5560 5556 5554 5551 5549 5548 5545 5543 5541 5539 5537 5535 5533 5532 5531 5531 5530 5531
5605 5602 5598 5595 5592 5588 5585 5582 5580 5578 5576 5576 5577 5578 5576 5574 5573 5570 5566 5563 5564 5563 5560 5557 5556 5554 5552 5550 5548 5546 5544 5542 5541 5539 5537 5535 5533 5531 5531 5530 5530 5528 5528
5591 5589 5586 5582 5578 5575 5571 5568 5566 5564 5563 5562 5562 5562 5562 5560 5561 5560 5556 5554 5554 5554 5554 5553 5551 5549 5548 5546 5545 5543 5542 5540 5539 5537 5536 5534 5532 5530 5529 5529 5529 5528 5528
5578 5574 5572 5568 5563 5560 5557 5554 5552 5550 5548 5548 5548 5548 5544 5545 5547 5548 5548 5547 5547 5547 5547 5547 5547 5546 5545 5544 5542 5541 5540 5539 5538 5536 5534 5532 5531 5529 5528 5528 5528 5528 5528
5563 5560 5556 5552 5549 5545 5542 5539 5537 5535 5533 5533 5534 5535 5533 5532 5534 5536 5537 5539 5539 5540 5541 5541 5542 5542 5542 5541 5540 5539 5538 5537 5536 5535 5533 5531 5530 5529 5528 5527 5527 5527 5527
5548 5545 5541 5537 5534 5530 5528 5525 5522 5520 5519 5519 5519 5521 5521 5521 5522 5524 5527 5529 5531 5533 5535 5535 5536 5538 5538 5537 5537 5536 5536 5535 5534 5532 5531 5530 5529 5528 5527 5527 5527 5527 5528
5534 5530 5526 5523 5519 5516 5513 5511 5509 5507 5506 5506 5506 5507 5508 5509 5512 5514 5517 5521 5524 5526 5528 5530 5531 5533 5534 5534 5534 5533 5533 5532 5530 5529 5528 5528 5528 5527 5527 5527 5528 5528 5529
5519 5515 5511 5508 5504 5501 5499 5497 5496 5494 5493 5493 5494 5495 5497 5500 5502 5505 5509 5512 5516 5519 5522 5524 5526 5528 5530 5531 5531 5531 5530 5528 5526 5526 5526 5526 5526 5526 5526 5527 5528 5529 5529
5506 5502 5498 5494 5491 5489 5487 5485 5484 5483 5483 5483 5484 5485 5487 5490 5493 5497 5501 5505 5509 5513 5517 5520 5522 5524 5526 5527 5527 5527 5526 5525 5524 5523 5523 5524 5525 5526 5526 5527 5529 5529 5530